CW0608 Weather Reports


Display with metric or nautical units.
time (UTC)temp
F
wind
direction
speed
MPH
gust
MPH
rain 1hr
in
rain 24hr
in
rain mn
in
humidity
%
barometer
mb
20260510074804 49 96 0.0 1.0 0.00 0.00 0.00 95 1011.7
20260510074305 49 96 0.0 1.0 0.00 0.00 0.00 95 1011.8
20260510072804 49 96 0.0 1.0 0.00 0.00 0.00 95 1011.8
20260510071804 50 96 0.0 1.0 0.00 0.00 0.00 95 1011.6
20260510070304 50 96 0.0 1.0 0.00 0.00 0.00 95 1011.5
20260510065804 50 96 0.0 1.0 0.00 0.00 0.00 95 1011.4
20260510064304 50 96 0.0 1.0 0.00 0.00 0.00 95 1011.2
20260510063306 50 96 0.0 1.0 0.00 0.00 0.00 95 1011.1
20260510061305 50 96 0.0 0.0 0.00 0.00 0.00 95 1011.2
20260510055805 51 96 0.0 1.0 0.00 0.00 0.00 95 1011.3
20260510054804 51 96 0.0 1.0 0.00 0.00 0.00 95 1011.4
20260510054304 51 96 0.0 1.0 0.00 0.00 0.00 94 1011.4
20260510050805 52 96 0.0 0.0 0.00 0.00 0.00 94 1011.5
20260510050305 52 96 0.0 1.0 0.00 0.00 0.00 94 1011.5
20260510045306 52 96 0.0 1.0 0.00 0.00 0.00 94 1011.6
20260510043304 53 96 0.0 0.0 0.00 0.00 0.00 94 1011.6
20260510042804 53 96 0.0 1.0 0.00 0.00 0.00 93 1011.7
20260510041304 53 96 0.0 1.0 0.00 0.00 0.00 93 1011.7
20260510034305 54 96 0.0 2.0 0.00 0.00 0.00 93 1011.7
20260510033806 54 96 0.0 2.0 0.00 0.00 0.00 92 1011.6
20260510032805 54 96 0.0 0.0 0.00 0.00 0.00 92 1011.6
20260510032306 54 96 0.0 0.0 0.00 0.00 0.00 92 1011.5
20260510031805 54 96 0.0 0.0 0.00 0.00 0.00 92 1011.6
20260510031305 54 96 0.0 0.0 0.00 0.00 0.00 92 1011.6
20260510030304 55 96 0.0 0.0 0.00 0.00 0.00 91 1011.5
20260510024805 55 96 0.0 1.0 0.00 0.00 0.00 90 1011.3
20260510023305 56 96 0.0 3.0 0.00 0.00 0.00 90 1011.3
20260510022805 56 102 1.0 3.0 0.00 0.00 0.00 89 1011.4
20260510022306 56 103 0.0 0.0 0.00 0.00 0.00 89 1011.2
20260510021805 56 103 0.0 0.0 0.00 0.00 0.00 89 1011.3
20260510021305 56 103 0.0 1.0 0.00 0.00 0.00 88 1011.4
20260510020304 57 103 0.0 2.0 0.00 0.00 0.00 88 1011.3
20260510015804 57 103 0.0 2.0 0.00 0.00 0.00 88 1011.2
20260510014805 57 103 0.0 2.0 0.00 0.00 0.00 87 1011.1
20260510013304 58 103 2.0 3.0 0.00 0.00 0.00 86 1010.9
20260510012804 58 106 1.0 2.0 0.00 0.00 0.00 85 1010.9
20260510005804 59 81 1.0 3.0 0.00 0.00 0.00 84 1010.7
20260510003305 60 133 1.0 3.0 0.00 0.00 0.00 82 1010.4
20260510001304 61 63 2.0 3.0 0.00 0.00 0.00 80 1010.3
20260510000804 61 75 2.0 3.0 0.00 0.00 0.00 79 1010.3
20260510000305 62 68 2.0 3.0 0.00 0.00 0.00 78 1010.3
20260509235306 62 65 1.0 3.0 0.00 0.00 0.00 78 1010.2
20260509234304 63 74 2.0 3.0 0.00 0.00 0.00 77 1010.1
20260509232805 64 33 1.0 7.0 0.00 0.00 0.00 76 1010.1
20260509231804 64 41 2.0 8.0 0.00 0.00 0.00 75 1009.9
20260509230305 66 57 3.0 10.0 0.00 0.00 0.00 73 1009.7
20260509225804 66 59 2.0 5.0 0.00 0.00 0.00 73 1009.7
20260509225306 66 66 1.0 5.0 0.00 0.00 0.00 73 1009.6
20260509224804 66 58 2.0 5.0 0.00 0.00 0.00 73 1009.7
20260509223806 66 87 2.0 8.0 0.00 0.00 0.00 72 1009.7
20260509223305 66 49 3.0 8.0 0.00 0.00 0.00 71 1009.8
20260509222307 67 71 2.0 9.0 0.00 0.00 0.00 70 1009.7
20260509221804 67 5 3.0 9.0 0.00 0.00 0.00 69 1009.7
20260509220805 67 118 3.0 7.0 0.00 0.00 0.00 70 1009.8
20260509220304 67 45 3.0 9.0 0.00 0.00 0.00 70 1009.9
20260509214305 68 55 2.0 5.0 0.00 0.00 0.00 70 1009.9
20260509213805 68 13 2.0 3.0 0.00 0.00 0.00 69 1009.8
20260509213305 68 67 2.0 3.0 0.00 0.00 0.00 66 1009.8
20260509212306 68 44 1.0 3.0 0.00 0.00 0.00 68 1009.8
20260509211306 69 116 1.0 3.0 0.00 0.00 0.00 66 1009.6
20260509205806 69 215 2.0 7.0 0.00 0.00 0.00 66 1009.5
20260509205307 69 58 2.0 6.0 0.00 0.00 0.00 64 1009.6
20260509204304 70 212 4.0 7.0 0.00 0.00 0.00 64 1009.6
20260509203304 70 128 2.0 8.0 0.00 0.00 0.00 66 1009.5
20260509195306 69 133 1.0 5.0 0.00 0.00 0.00 62 1010.1
20260509194805 69 53 2.0 5.0 0.00 0.00 0.00 63 1010.2
20260509191804 68 86 1.0 3.0 0.00 0.00 0.00 63 1010.6
20260509190306 67 269 2.0 3.0 0.00 0.00 0.00 64 1010.5
20260509185306 68 294 2.0 6.0 0.00 0.00 0.00 62 1010.8
20260509183806 66 48 5.0 7.0 0.00 0.00 0.00 62 1011.0
20260509180805 64 312 1.0 3.0 0.00 0.00 0.00 69 1011.7
20260509174805 64 339 0.0 3.0 0.00 0.00 0.00 68 1011.7
20260509173305 64 339 1.0 5.0 0.00 0.00 0.00 67 1011.7
20260509172805 64 338 2.0 5.0 0.00 0.00 0.00 69 1011.7
20260509171805 64 261 1.0 3.0 0.00 0.00 0.00 67 1011.8
20260509170804 65 335 3.0 6.0 0.00 0.00 0.00 67 1011.8
20260509164805 67 241 3.0 7.0 0.00 0.00 0.00 64 1011.8
20260509164304 67 211 2.0 10.0 0.00 0.00 0.00 61 1011.9
20260509163804 67 200 5.0 10.0 0.00 0.00 0.00 61 1011.8
20260509162805 66 166 2.0 7.0 0.00 0.00 0.00 66 1011.9
20260509161304 64 144 3.0 7.0 0.00 0.00 0.00 64 1011.9
20260509160804 64 213 2.0 8.0 0.00 0.00 0.00 65 1012.1
20260509160306 64 165 3.0 8.0 0.00 0.00 0.00 64 1012.0
20260509154305 65 176 2.0 5.0 0.00 0.00 0.00 64 1011.8
20260509152806 65 7 2.0 7.0 0.00 0.00 0.00 65 1012.0
20260509150806 64 176 2.0 8.0 0.00 0.00 0.00 65 1012.3
20260509145806 63 150 1.0 8.0 0.00 0.00 0.00 67 1012.5
20260509142307 63 146 3.0 7.0 0.00 0.00 0.00 67 1012.5
20260509141805 63 156 3.0 7.0 0.00 0.00 0.00 65 1012.6
20260509141304 63 180 3.0 7.0 0.00 0.00 0.00 67 1012.6
20260509140805 62 169 4.0 7.0 0.00 0.00 0.00 68 1012.5
20260509134304 62 153 3.0 6.0 0.00 0.00 0.00 67 1012.5
20260509132804 62 133 5.0 8.0 0.00 0.00 0.00 67 1012.4
20260509132306 61 169 3.0 7.0 0.00 0.00 0.00 67 1012.4
20260509130804 61 146 5.0 12.0 0.00 0.00 0.00 67 1012.4
20260509122306 60 167 2.0 6.0 0.00 0.00 0.00 74 1012.3
20260509121804 59 147 1.0 5.0 0.00 0.00 0.00 73 1012.4
20260509120304 59 165 2.0 6.0 0.00 0.00 0.00 72 1012.5
20260509115307 59 150 1.0 6.0 0.00 0.00 0.00 71 1012.5
20260509114805 59 165 3.0 6.0 0.00 0.00 0.00 70 1012.5
20260509112809 58 158 2.0 5.0 0.00 0.00 0.00 72 1012.3
20260509111804 57 158 2.0 5.0 0.00 0.00 0.00 73 1012.3
20260509105306 55 139 0.0 1.0 0.00 0.00 0.00 78 1012.0
20260509104305 55 139 0.0 3.0 0.00 0.00 0.00 77 1012.0
20260509103805 55 139 0.0 2.0 0.00 0.00 0.00 77 1012.0
20260509102804 56 139 1.0 3.0 0.00 0.00 0.00 74 1012.1
20260509102306 55 139 1.0 3.0 0.00 0.00 0.00 74 1012.0
20260509101805 55 139 1.0 3.0 0.00 0.00 0.00 75 1012.0
20260509101304 55 138 0.0 3.0 0.00 0.00 0.00 74 1011.9
20260509095306 56 170 1.0 2.0 0.00 0.00 0.00 73 1011.9
20260509094805 56 179 0.0 3.0 0.00 0.00 0.00 73 1012.0
20260509094305 56 181 1.0 3.0 0.00 0.00 0.00 72 1011.9
20260509093304 56 144 2.0 8.0 0.00 0.00 0.00 71 1011.9
20260509091304 56 153 1.0 3.0 0.00 0.00 0.00 72 1012.0
20260509084804 56 143 2.0 3.0 0.00 0.00 0.00 71 1012.2
20260509082805 57 145 3.0 8.0 0.00 0.00 0.00 69 1012.4
20260509082307 57 157 5.0 8.0 0.00 0.00 0.00 69 1012.4
20260509080805 56 170 3.0 3.0 0.00 0.00 0.00 70 1012.5
20260509075805 56 169 1.0 5.0 0.00 0.00 0.00 70 1012.6